Location: ????
(31.9870°N, 35.0401°E)
Time: 14:05:15
(UTC+00:00)

Daily predictions for brighter satellites

Satellite Brightness Start Highest point End
(mag) Time Altitude Azimuth Time Altitude Azimuth Time Altitude Azimuth
SMAP 3.2 14:54:19 10° SSE 14:58:50 53° ENE 15:03:21 10° N
CRYOSAT 2 4.4 14:54:54 10° NNE 14:59:45 66° E 15:04:37 10° S
ATLAS 5 CENTAUR R/B 3.9 14:54:34 10° NW 15:00:30 46° WSW 15:07:08 10° S
Cosmos 1125 Rocket 3.9 14:55:45 10° N 15:00:39 41° ENE 15:05:33 10° SE
PAYLOAD B 4.3 14:57:12 10° SSE 15:02:47 89° WSW 15:08:24 10° NNW
Radarsat Rocket 4.0 14:58:12 10° SSE 15:04:03 82° ENE 15:10:22 10° NNW
CZ-4B R/B 1.4 15:04:19 10° NNE 15:07:19 49° E 15:10:21 10° S
Cosmos 1933 4.0 15:05:17 10° SSE 15:08:56 35° E 15:12:37 10° NNE
Cosmos 1606 2.7 15:06:29 10° S 15:10:21 75° E 15:14:15 10° N
Cosmos 1295 Rocket 4.5 15:05:37 10° N 15:11:46 71° E 15:17:59 10° SSE
H-2A R/B 3.7 15:14:01 10° S 15:18:17 50° W 15:22:27 10° NNW
Envisat 4.1 15:15:50 10° S 15:20:43 49° W 15:25:39 10° NNW
X-37B 1.6 15:18:01 10° SSW 15:20:54 33° SE 15:23:04 15° E
SAR-Lupe-4 4.1 15:18:12 10° NNE 15:21:34 38° E 15:24:55 10° S
Abrixas rocket 2.9 15:19:18 10° NNW 15:21:42 26° NE 15:23:12 16° E
USA 281 4.2 15:17:08 10° ESE 15:21:56 22° ENE 15:26:46 10° N
DELTA 2 R/B (1) 4.5 15:17:34 10° WNW 15:22:56 51° SSW 15:28:17 10° SE
Cosmos 1782 3.9 15:21:00 10° SE 15:24:06 23° E 15:26:58 11° NE
NOAA 12 4.2 15:19:17 10° SSE 15:24:36 85° WSW 15:29:57 10° NNW
Cosmos 2278 Rocket 2.4 15:22:58 10° NNW 15:28:39 78° WSW 15:34:18 10° SSE
SL-24 R/B - RUBIN 2 4.1 15:23:41 10° NNW 15:29:42 67° ENE 15:34:57 10° SE
Meteor 1-4 Rocket 3.4 15:29:55 10° SSE 15:33:07 29° E 15:35:16 16° NE
PSLV R/B 4.3 15:30:51 10° NNE 15:34:41 41° E 15:38:31 10° S
Cosmos 1515 Rocket 4.4 15:31:19 10° SSE 15:34:59 27° E 15:37:47 15° NE
Cosmos 773 Rocket 4.1 15:30:25 10° S 15:35:31 58° ESE 15:40:42 10° NNE
USA 81 4.2 15:33:10 10° N 15:38:17 49° E 15:43:22 10° SSE
SAR-Lupe-1 4.0 15:35:07 10° NNE 15:38:42 66° E 15:42:15 10° S
H-2A R/B 3.8 15:40:38 14° NE 15:40:38 14° NE 15:42:03 10° NNE
Okean-O 3.7 15:35:29 10° ESE 15:38:56 23° ENE 15:42:25 10° NNE
COSMO-SKYMED 1 2.5 15:36:12 10° NNE 15:40:33 79° ESE 15:44:51 10° S
ERS-2 2.8 15:37:06 10° N 15:40:40 55° WNW 15:44:14 10° SSW
MOS 1 Rocket 4.2 15:35:58 10° NNE 15:40:55 35° E 15:45:47 10° SSE
CZ-4B R/B 4.1 15:38:45 10° S 15:43:58 51° W 15:49:08 10° NNW
Lacrosse 5 rocket 2.2 15:40:56 10° WSW 15:44:25 38° NW 15:47:16 14° NNE
Cosmos 2218 Rocket 4.1 15:39:09 10° N 15:45:06 51° E 15:51:03 10° SSE
CZ-2D R/B 3.7 15:42:05 10° SE 15:45:34 36° ENE 15:49:05 10° N
Sich 1 3.3 15:41:57 10° NNW 15:46:19 70° W 15:50:36 10° S
Okean O Rocket 2.9 15:44:17 10° S 15:48:24 43° W 15:52:32 10° NNW
Meteor 1-25 Rocket 4.3 15:43:14 10° N 15:48:44 55° E 15:54:18 10° SSE
Cosmos 2237 Rocket 4.4 15:45:09 10° WSW 15:49:20 21° WNW 15:53:33 10° NNW
NOAA 11 4.3 15:44:16 10° S 15:49:39 77° WSW 15:55:06 10° NNW
CZ-3A R/B 3.3 15:48:14 10° SW 15:51:23 21° S 15:52:44 15° SE
Cosmos 44 4.5 15:48:38 10° N 15:53:01 25° NE 15:53:17 25° ENE
Cosmos 1151 Rocket 3.1 15:49:06 10° S 15:53:24 77° W 15:57:41 10° N
Cosmos 1689 Rocket 2.0 15:52:55 20° N 15:54:46 83° WNW 15:57:41 10° SSW
Cosmos 2366 rocket 3.9 15:48:46 10° N 15:54:51 59° E 16:00:53 10° SSE
Cosmos 1943 4.0 15:53:52 10° SSE 15:58:34 28° ESE 15:59:06 27° E
CZ-4 R/B 3.3 15:55:28 10° SE 16:02:51 - N 15:56:12 15° SE
GENESIS II 4.3 15:57:44 10° NNW 16:01:39 75° WSW 16:05:27 10° SSE
Cosmos 1328 Rocket 3.8 15:57:59 10° SSW 16:02:15 69° W 16:06:34 10° N
USA 238 DEB 4.5 16:00:42 10° SSE 16:05:56 26° ESE 16:06:16 26° ESE
Cosmos 1666 Rocket 3.9 16:01:37 10° NNW 16:06:00 68° W 16:10:24 10° S
USA 238 4.5 16:00:49 10° SSE 16:06:03 26° ESE 16:06:20 26° ESE
Cosmos 489 Rocket 4.3 16:01:08 10° S 16:07:20 80° ESE 16:13:04 12° NNE
TIMED 4.4 16:03:19 10° SSW 16:07:39 86° ESE 16:10:01 27° NNE
Cosmos 1939 Rocket 3.1 16:05:37 10° S 16:09:25 64° W 16:13:16 10° NNW
Cosmos 2369 Rocket 4.2 16:05:35 10° NNE 16:06:00 11° NNE 16:06:00 11° NNE
NOAA 15 4.5 16:18:54 10° SSE 16:24:08 67° ENE 16:29:24 10° N
CZ-2C R/B 2.9 16:20:18 10° SSE 16:25:34 79° ENE 16:30:35 10° N
Cosmos 1538 Rocket 4.1 16:21:02 10° SSW 16:26:22 79° WNW 16:29:24 27° N
Nadezhda 3 Rocket 3.9 16:28:01 10° S 16:34:18 73° E 16:38:05 26° NNE
Cosmos 1943 Rocket 2.9 16:29:12 10° N 16:32:39 35° NNE 16:32:39 35° NNE
Cosmos 2297 3.7 16:31:17 10° NNW 16:36:59 82° WSW 16:42:41 10° SSE
Cosmos 2285 Rocket 4.0 16:30:36 10° NNW 16:37:00 85° WSW 16:43:20 10° SSE
USA 267 3.7 16:37:37 41° NE 16:37:37 41° NE 16:43:24 10° NNW
SL-16 R/B 4.2 16:33:18 10° WSW 16:37:49 24° WNW 16:42:22 10° N
ATLAS 3B CENTAUR R/B 3.7 16:36:13 10° WSW 16:36:21 11° WSW 16:36:21 11° WSW
Meteor 2-6 Rocket 4.1 16:35:37 10° S 16:41:21 87° E 16:42:41 55° NNE
Meteor 1-14 Rocket 4.4 16:42:52 10° N 16:48:50 80° W 16:54:48 10° S
Cosmos 2228 Rocket 4.3 16:49:00 10° SSW 16:51:43 35° SSW 16:51:43 35° SSW
X-37B 3.9 16:54:51 10° W 16:55:21 13° W 16:55:21 13° W
USA 281 3.6 16:59:28 10° S 17:05:54 59° WSW 17:12:23 10° NNW
H-2A R/B 4.1 17:12:31 10° S 17:21:15 19° NNW 17:22:48 10° NNW
CENTAUR R/B 4.2 17:19:47 10° SSW 17:21:01 18° SSW 17:21:01 18° SSW
